GFSFLT1_sfc_30mbdewp_021.txt.gz
Dewpoint
40 40 40 38 45 47 49 53 53 51 48 46 43 42 40 41 40 40 43 44 44 45 45 45 45 44 44 45 47 46 46 45
37 39 39 42 47 48 50 50 49 45 42 39 37 38 38 38 39 42 43 43 43 42 41 40 42 40 42 45 45 45 46 46
36 39 42 42 42 42 41 41 40 39 37 39 40 41 40 41 42 41 40 39 39 38 39 39 39 39 41 42 43 43 44 45
33 37 40 42 42 40 39 40 41 42 41 39 39 39 39 37 38 38 38 40 39 39 39 38 39 40 39 41 41 41 41 42
34 37 39 42 43 42 41 41 40 41 42 39 40 39 38 39 40 40 41 41 38 35 34 34 38 40 41 41 38 42 42 39
36 37 40 41 43 44 43 40 41 41 42 41 41 40 40 40 39 38 37 33 33 32 32 34 38 39 39 41 43 43 42 42
36 37 38 40 42 42 41 40 39 40 41 42 41 40 39 36 36 35 33 33 32 32 32 36 38 40 40 42 41 40 40 39
36 37 37 39 40 41 41 40 40 39 39 39 38 37 37 36 36 34 35 33 31 32 35 38 38 41 40 40 40 40 39 38
36 37 38 38 39 40 42 42 40 38 39 39 39 40 38 38 36 36 34 32 33 34 37 38 39 41 41 39 39 39 38 36
35 36 37 38 39 39 40 41 39 39 39 40 40 39 38 37 36 34 32 33 33 34 38 39 37 37 36 36 36 37 38 35
35 35 36 37 37 39 39 38 37 39 39 38 37 38 37 35 33 32 32 33 34 37 39 36 35 36 37 36 36 36 36 37
34 34 36 37 38 38 36 36 37 37 36 35 34 34 34 33 31 31 32 33 32 31 32 34 37 36 37 36 35 34 33 32
34 35 37 37 37 36 35 35 34 34 32 31 31 32 32 31 31 34 35 33 34 35 38 40 39 36 34 33 32 31 31 29
34 35 35 35 35 34 32 33 33 31 29 29 29 30 35 35 35 38 36 33 33 32 35 37 35 33 27 23 21 20 21 20
35 35 34 34 32 29 32 31 30 28 28 29 28 33 33 32 34 32 29 28 26 23 22 21 21 21 20 19 19 19 19 18
35 35 34 30 26 29 31 29 27 27 28 27 27 29 29 29 29 27 25 23 20 18 18 18 19 19 17 20 20 19 18 18
36 33 29 25 26 29 28 27 26 26 26 27 27 27 29 29 25 24 20 17 17 18 18 18 18 18 22 22 21 19 17 17
35 28 26 25 27 28 26 26 25 23 25 25 26 28 26 25 22 17 16 17 18 18 18 18 18 19 21 22 22 20 18 19
31 27 25 25 26 28 26 24 24 24 22 25 27 26 26 23 17 16 16 17 17 18 18 18 19 19 23 23 22 20 20 19

GFSFLT1_sfc_30mbdewp_024.txt.gz
Dewpoint
41 41 41 46 48 48 49 55 56 54 51 49 47 45 45 45 44 46 47 46 48 47 47 47 48 46 46 46 48 48 48 48
41 42 44 46 49 50 51 50 48 46 45 41 42 43 44 43 44 46 44 45 43 44 44 44 44 44 45 46 46 45 45 47
41 43 44 43 43 42 42 42 43 43 43 42 43 43 43 44 44 42 43 43 43 43 43 42 43 43 43 44 44 45 44 45
38 42 44 44 44 43 42 42 43 44 45 42 42 42 43 42 43 43 44 45 44 43 44 43 42 42 42 42 43 42 43 44
37 40 43 44 44 44 42 42 42 43 44 43 43 43 42 43 43 42 43 42 41 38 37 39 40 43 42 43 44 45 44 42
37 39 42 44 46 45 43 41 40 43 43 44 44 43 43 42 41 41 39 40 39 38 37 38 41 42 42 45 43 41 41 40
37 38 41 43 44 44 43 41 41 42 41 42 41 41 41 40 41 40 40 39 37 37 37 39 40 42 43 42 41 40 39 39
36 37 38 39 40 42 42 43 42 42 42 42 42 43 43 41 40 40 38 36 36 36 37 39 42 42 42 41 40 40 40 38
36 36 37 38 40 40 41 42 41 40 42 44 43 42 41 40 39 37 36 36 36 37 41 41 41 41 41 40 39 40 39 39
35 36 37 38 38 39 41 41 39 39 40 41 42 41 40 38 37 36 36 35 35 37 38 40 38 37 39 39 37 37 38 39
35 35 36 38 39 40 40 38 37 38 38 38 36 36 36 36 35 35 35 36 36 36 38 38 38 39 38 38 37 38 38 37
34 35 38 38 39 39 38 36 35 35 35 34 33 33 34 35 35 37 39 37 36 35 38 40 39 39 37 37 35 34 32 33
35 36 37 37 37 37 36 34 34 34 32 30 31 32 37 36 36 35 36 38 35 35 34 36 38 37 36 35 32 30 30 29
34 35 36 35 35 34 32 33 33 31 29 28 29 31 34 32 33 35 34 33 31 30 27 26 26 25 25 23 21 22 22 22
34 35 35 35 33 30 29 31 30 29 27 28 29 30 32 31 32 33 32 30 27 24 23 22 22 21 21 21 22 23 22 21
36 36 35 32 29 27 29 31 28 29 26 27 28 29 30 30 32 31 29 27 22 22 21 22 22 21 20 22 22 22 21 21
35 35 32 28 27 27 29 29 27 27 26 25 26 29 29 29 29 29 26 21 21 21 22 22 22 20 23 23 23 22 22 22
35 33 30 27 27 25 24 28 27 26 26 26 26 31 29 27 26 25 20 21 21 21 21 22 22 24 23 25 24 23 22 21
33 30 27 26 23 23 25 27 28 28 27 29 25 30 28 27 27 23 21 21 21 21 22 23 24 23 26 25 25 24 22 21

GFSFLT1_sfc_30mbdewp_027.txt.gz
Dewpoint
46 48 49 50 52 52 50 50 51 53 51 49 48 47 47 46 46 47 45 47 44 43 43 44 44 43 44 44 44 44 45 44
44 45 45 43 44 43 44 43 44 43 42 41 42 42 43 43 45 43 42 45 45 44 44 42 42 42 43 43 43 43 43 44
44 45 45 44 42 42 43 43 43 43 43 44 44 44 44 45 46 45 45 43 42 43 43 43 43 42 42 42 41 41 43 44
43 43 43 43 42 42 42 43 43 43 43 43 43 44 43 43 42 42 43 42 40 39 39 39 39 43 42 41 44 43 42 43
43 44 44 44 44 44 42 42 42 43 43 44 43 43 41 42 42 42 41 40 39 38 38 38 40 41 40 45 42 40 39 38
41 43 44 45 44 43 42 42 43 43 44 44 44 41 41 42 42 41 40 38 37 37 36 37 38 42 44 41 40 40 39 37
40 43 44 44 44 43 43 42 42 43 43 43 42 42 43 41 40 38 37 37 37 36 36 40 42 42 42 42 41 40 39 39
37 39 41 43 41 43 42 43 41 42 43 42 42 42 41 39 38 36 35 35 35 36 41 41 42 42 41 40 40 40 40 38
36 37 38 40 40 41 41 41 40 41 42 42 41 39 41 38 36 35 35 33 34 38 39 39 38 38 39 40 40 39 38 38
36 37 38 38 39 41 40 37 38 39 39 38 37 37 38 35 35 36 37 37 35 37 37 38 38 38 39 39 38 37 38 37
36 37 38 38 39 40 38 37 37 35 34 34 33 33 36 37 37 37 38 38 37 36 39 39 39 39 39 37 36 36 35 35
36 37 37 37 39 39 37 35 34 33 31 31 31 36 36 36 34 34 36 36 37 37 36 38 38 38 38 37 35 34 33 32
34 36 37 36 36 35 35 34 33 31 30 29 29 36 35 33 32 33 33 34 36 34 31 28 33 35 34 34 32 29 24 22
36 36 36 36 34 32 31 32 30 29 28 28 28 30 33 31 32 33 35 33 31 28 24 23 24 24 23 24 24 23 23 22
36 36 35 34 33 29 29 32 30 29 28 27 27 29 32 31 31 32 32 30 27 23 22 23 23 23 23 23 23 23 22 22
36 35 34 34 30 28 28 31 29 29 28 27 27 28 32 31 32 31 31 28 25 22 22 22 23 23 22 21 22 22 22 22
35 35 34 33 27 25 24 25 30 29 27 28 29 31 30 31 31 30 30 24 21 21 21 21 24 23 24 25 25 23 23 22
34 33 32 28 26 24 24 25 25 25 27 31 33 34 35 34 34 33 25 21 21 20 21 24 24 24 26 26 26 24 23 22
32 31 28 26 26 25 24 23 22 22 29 29 32 34 35 35 35 30 26 22 20 21 24 25 25 24 26 27 28 26 25 24

GFSFLT1_sfc_30mbdewp_030.txt.gz
Dewpoint
45 46 48 50 53 56 56 58 58 57 56 50 47 45 45 47 47 45 46 44 44 44 45 44 44 43 43 42 42 42 41 42
45 46 46 44 45 45 47 46 46 45 45 43 43 43 44 45 44 45 44 43 42 41 41 41 41 41 43 43 43 40 42 43
43 44 44 45 45 44 44 43 42 43 44 44 44 44 44 43 43 43 42 40 39 37 38 38 39 42 41 41 43 43 44 42
42 43 44 43 42 42 42 42 42 43 43 43 44 44 43 42 42 41 40 38 38 38 37 37 38 40 40 42 42 41 41 40
43 43 43 42 42 42 42 42 43 43 44 43 42 42 40 42 41 40 39 38 37 37 37 38 40 42 43 43 41 40 39 36
43 43 43 43 42 42 42 42 43 44 44 44 43 41 43 42 41 38 36 37 36 37 40 41 42 42 42 41 40 40 39 38
43 44 44 43 44 43 43 43 42 44 44 43 43 42 41 39 37 35 36 36 35 39 41 41 42 41 41 40 40 39 39 38
42 42 43 44 43 43 43 42 42 42 42 41 41 40 39 37 35 34 34 34 35 38 40 40 41 41 39 40 39 38 38 38
40 40 41 41 41 41 41 40 41 42 42 39 40 40 37 36 35 36 36 36 36 37 39 38 38 38 39 39 39 38 38 37
38 38 39 40 40 40 37 38 40 38 38 35 35 38 37 35 36 37 37 36 36 37 37 37 38 39 39 38 37 37 37 36
37 38 38 39 40 39 38 37 35 34 33 33 32 35 37 36 37 36 35 35 36 36 37 38 38 38 38 37 36 35 34 34
37 37 36 36 36 35 36 35 33 31 31 31 34 36 36 36 34 34 34 35 34 35 35 33 36 37 37 36 35 35 32 28
36 36 36 35 34 33 35 34 32 30 30 29 29 35 36 34 33 32 33 32 34 34 32 25 25 26 27 27 27 25 22 22
36 35 34 34 33 32 31 33 30 30 29 28 28 29 34 33 32 33 34 34 33 31 25 22 23 24 24 25 24 23 22 22
35 35 34 34 33 29 28 31 32 31 31 28 28 29 30 32 33 33 34 35 35 28 23 23 23 24 23 22 22 21 22 23
35 35 35 34 31 27 26 26 28 28 27 29 32 32 32 32 32 34 36 36 34 32 23 22 24 23 22 21 22 23 23 23
35 33 32 31 29 27 25 25 24 25 30 31 33 33 33 34 35 35 36 37 36 25 22 22 24 23 24 25 25 24 23 23
33 31 30 28 25 24 22 22 22 23 29 31 33 33 34 34 35 36 36 36 29 24 24 25 25 23 26 27 29 26 25 24
31 25 23 23 23 22 21 20 20 24 28 31 32 33 33 33 34 35 33 29 31 31 26 26 25 25 27 28 29 28 26 25

GFSFLT1_sfc_30mbdewp_033.txt.gz
Dewpoint
45 48 52 54 56 57 56 57 57 57 49 47 46 45 45 45 45 43 42 41 40 39 39 39 41 40 41 42 41 41 42 42
46 47 46 48 50 51 51 49 48 46 46 46 44 42 43 43 41 40 39 39 38 37 36 36 38 38 40 40 41 40 42 41
44 46 46 47 46 44 42 42 42 43 43 44 43 43 43 41 41 40 39 38 37 36 35 35 37 38 39 39 42 42 43 40
44 45 45 44 42 42 41 41 41 42 43 44 44 44 44 41 40 39 39 38 38 37 37 39 40 41 41 42 42 40 40 39
45 43 42 42 42 43 42 42 43 43 43 42 41 40 39 42 41 39 37 37 36 38 40 41 42 42 41 42 40 39 38 37
42 42 42 42 42 42 42 43 44 45 44 44 42 41 42 41 38 36 36 35 36 40 41 40 40 41 41 40 40 39 38 37
43 43 43 43 43 43 42 42 43 44 43 43 42 42 40 38 36 35 35 35 36 40 40 41 41 41 40 40 39 38 37 37
43 43 43 44 43 43 42 42 42 42 42 41 41 40 38 36 34 33 34 34 35 36 38 38 39 40 39 39 38 38 37 36
42 42 42 41 41 41 41 42 41 41 39 39 40 38 36 35 35 35 35 35 35 36 37 38 37 38 38 38 38 37 37 36
39 39 40 40 40 38 38 40 39 40 37 36 38 38 36 35 35 36 36 36 36 36 37 37 37 38 38 38 37 36 36 34
38 38 38 39 39 37 38 39 36 33 32 32 32 33 36 36 36 36 37 36 35 36 37 37 38 38 37 37 36 35 34 33
36 36 35 35 35 34 36 34 33 32 32 31 31 33 36 36 36 36 36 35 35 35 35 34 33 34 34 34 32 33 29 24
36 35 35 34 33 32 35 34 33 32 30 30 31 33 36 36 36 35 34 33 34 35 33 29 25 27 26 24 24 24 22 21
35 34 34 33 33 31 30 30 33 31 31 31 29 29 30 31 33 33 33 35 35 35 34 34 29 25 24 24 24 23 22 22
35 34 34 34 33 29 28 28 30 29 28 29 30 31 31 31 32 33 34 35 35 36 37 32 30 26 25 23 22 21 22 23
35 33 33 32 31 27 25 25 25 26 28 30 31 32 32 32 32 34 35 36 36 37 36 35 26 25 22 21 22 23 23 23
33 32 29 27 24 23 23 22 22 25 30 30 32 32 33 34 34 34 35 35 36 37 30 25 26 23 24 25 26 26 25 24
33 26 24 23 22 22 20 20 21 22 28 30 32 33 32 32 33 33 34 35 35 29 30 28 25 24 25 28 28 28 26 26
23 21 20 21 21 19 20 20 20 25 27 29 30 29 32 32 33 33 30 31 33 33 30 26 24 25 28 28 26 23 22 22